Location: Peebles
(55.6412°N, 3.1714°W)
Time: 22:45:52
(UTC+01:00)

DMSP 7529 - Pass Details

Date: 03 July 2022
Orbit: 766 x 803 km, 98.7° (Epoch: 15 August)

Event Time Altitude Azimuth Distance (km) Brightness Sun altitude
Rises 23:46:17 0° 11° (N) 3,313 9.4 -9.1°
Reaches altitude 10° 23:50:01 10° 343° (NNW) 2,385 9.2 -9.3°
Maximum altitude 23:52:08 13° 319° (NW) 2,211 8.6 -9.4°
Drops below altitude 10° 23:54:16 10° 295° (WNW) 2,387 8.2 -9.5°
Sets 23:58:01 0° 268° (W) 3,317 8.5 -9.7°
